Weather History for Tacoma, WA

Change the Weather History Date:

Friday, January 25, 2013

  Actual Average Record
Temperature  
Mean Temperature 42 °F -  
Max Temperature 52 °F 45 °F 57 °F (1982)
Min Temperature 32 °F 33 °F 16 °F (2008)
Degree Days  
Heating Degree Days 23    
Moisture  
Dew Point 41 °F    
Average Humidity 96    
Maximum Humidity 100    
Minimum Humidity 76    
Precipitation  
Precipitation 0.10 in - - ()
Sea Level Pressure  
Sea Level Pressure 30.00 in    
Wind  
Wind Speed 2 mph (SSE)    
Max Wind Speed 10 mph    
Max Gust Speed -    
Visibility 6 miles    
Events Fog , Rain    
Averages and records for this station are not official NWS values.
T = Trace of Precipitation, MM = Missing Value Source: NWS Daily Summary

Daily Weather History Graph

Daily Weather History Graph

Search for Another Location

Airport:

Trip Planner

Search our weather history database for the weather conditions in past years. The results will help you decide how hot, cold, wet, or windy it might be!

Date:

Astronomy

Jan. 25, 2013 Rise Set
Actual Time 7:42 AM PST 5:02 PM PST
Civil Twilight 7:09 AM PST 5:35 PM PST
Nautical Twilight 6:32 AM PST 6:12 PM PST
Astronomical Twilight 5:56 AM PST 6:48 PM PST
Moon 4:05 PM PST (1/25) 6:26 AM PST (1/25)
Length of Visible Light 10h 26m
Length of Day
9h 19m
Waxing Gibbous, 98% of the Moon is Illuminated
Jan 25
Waxing Gibbous
Jan 26
Full
Feb 3
Last Quarter
Feb 9
New
Feb 17
First Quarter

Hourly Weather History & Observations

Time (PST) Temp. Windchill Dew Point Humidity Pressure Visibility Wind Dir Wind Speed Gust Speed Precip Events Conditions
12:01 AM 41.0 °F - 41.0 °F 100% 30.06 in 10.0 mi Calm Calm - N/A Rain Light Rain
12:51 AM 41.0 °F - 41.0 °F 100% 30.05 in 8.0 mi ESE 1.2 mph - N/A   Overcast
12:58 AM 40.3 °F - 40.3 °F 100% 30.07 in 8.0 mi ESE 1.2 mph - 0.02 in   Overcast
1:06 AM 41.0 °F - 41.0 °F 100% 30.05 in 6.0 mi SE 1.2 mph - N/A Rain Light Rain
1:19 AM 41.0 °F - 41.0 °F 100% 30.04 in 6.0 mi SSE 2.3 mph - N/A   Overcast
1:41 AM 41.0 °F - 41.0 °F 100% 30.04 in 7.0 mi Calm Calm - N/A   Light Drizzle
1:55 AM 41.0 °F - 41.0 °F 100% 30.05 in 9.0 mi Calm Calm - N/A   Overcast
1:58 AM 40.5 °F - 40.5 °F 100% 30.06 in 9.0 mi Calm Calm - 0.00 in   Overcast
2:58 AM 40.6 °F 37.5 °F 40.6 °F 100% 30.07 in 6.0 mi SSE 4.6 mph - N/A   Overcast
3:05 AM 41.0 °F - 41.0 °F 100% 30.05 in 7.0 mi Calm Calm - N/A Rain Light Rain
3:25 AM 41.0 °F - 41.0 °F 100% 30.05 in 10.0 mi SE 1.2 mph - N/A   Overcast
3:45 AM 41.0 °F - 41.0 °F 100% 30.04 in 10.0 mi SE 1.2 mph - N/A   Overcast
3:58 AM 41.7 °F - 41.7 °F 100% 30.06 in 10.0 mi Calm Calm - 0.01 in   Overcast
4:35 AM 41.0 °F - 41.0 °F 100% 30.04 in 10.0 mi Calm Calm - N/A Rain Light Rain
4:45 AM 42.8 °F - 42.8 °F 100% 30.04 in 10.0 mi SSE 2.3 mph - N/A Rain Light Rain
4:55 AM 41.0 °F - 41.0 °F 100% 30.04 in 7.0 mi SE 2.3 mph - N/A   Overcast
4:58 AM 41.4 °F - 41.4 °F 100% 30.06 in 7.0 mi SE 2.3 mph - 0.00 in   Overcast
5:18 AM 42.8 °F 41.1 °F 42.8 °F 100% 30.04 in 10.0 mi SE 3.5 mph - N/A   Overcast
5:53 AM 42.8 °F - 42.8 °F 100% 30.04 in 10.0 mi Calm Calm - N/A   Overcast
5:58 AM 42.6 °F - 42.6 °F 100% 30.06 in 10.0 mi North 1.2 mph - N/A   Overcast
6:58 AM 43.9 °F - 43.9 °F 100% 30.07 in 10.0 mi Calm Calm - N/A   Overcast
7:58 AM 42.8 °F - 42.8 °F 100% 30.07 in 10.0 mi Calm Calm - N/A   Overcast
8:48 AM 42.8 °F - 42.8 °F 100% 30.05 in 2.0 mi SE 2.3 mph - N/A   Mostly Cloudy
8:53 AM 42.8 °F - 42.8 °F 100% 30.05 in 0.8 mi SE 2.3 mph - N/A   Mostly Cloudy
8:58 AM 42.4 °F - 42.4 °F 100% 30.07 in 0.5 mi SE 2.3 mph - N/A Fog Fog
9:03 AM 41.0 °F - 41.0 °F 100% 30.05 in 0.2 mi ESE 2.3 mph - N/A Fog Fog
9:13 AM 41.0 °F - 41.0 °F 100% 30.05 in 0.5 mi Calm Calm - N/A Fog Fog
9:18 AM 42.8 °F - 42.8 °F 100% 30.05 in 0.8 mi SE 2.3 mph - N/A   Overcast
9:23 AM 42.8 °F - 42.8 °F 100% 30.05 in 2.0 mi SE 2.3 mph - N/A   Overcast
9:28 AM 44.6 °F - 44.6 °F 100% 30.05 in 7.0 mi Calm Calm - N/A   Overcast
9:48 AM 44.6 °F - 44.6 °F 100% 30.05 in 10.0 mi SE 2.3 mph - N/A   Overcast
9:58 AM 45.7 °F - 45.7 °F 100% 30.07 in 10.0 mi SE 2.3 mph - N/A   Mostly Cloudy
10:38 AM 50.0 °F - 48.2 °F 94% 30.05 in 10.0 mi South 4.6 mph - N/A   Scattered Clouds
10:58 AM 49.5 °F - 48.2 °F 95% 30.07 in 10.0 mi SSW 6.9 mph - N/A   Partly Cloudy
11:38 AM 51.8 °F - 46.4 °F 82% 30.03 in 10.0 mi SSW 8.1 mph - N/A   Mostly Cloudy
11:58 AM 50.2 °F - 46.4 °F 87% 30.04 in 10.0 mi West 10.4 mph - N/A   Mostly Cloudy
12:58 PM 52.5 °F - 45.5 °F 77% 30.02 in 10.0 mi WSW 8.1 mph - N/A   Mostly Cloudy
1:13 PM 51.8 °F - 44.6 °F 76% 29.99 in 10.0 mi SSW 10.4 mph - N/A   Overcast
1:18 PM 51.8 °F - 44.6 °F 76% 29.99 in 10.0 mi SSW 8.1 mph - N/A   Overcast
1:58 PM 50.9 °F - 44.1 °F 77% 30.00 in 10.0 mi WSW 6.9 mph - N/A   Overcast
2:38 PM 50.0 °F - 44.6 °F 82% 29.97 in 10.0 mi West 5.8 mph - N/A   Overcast
2:43 PM 50.0 °F - 44.6 °F 82% 29.97 in 10.0 mi West 6.9 mph - N/A   Overcast
2:58 PM 50.9 °F - 43.7 °F 76% 29.99 in 10.0 mi WSW 5.8 mph - N/A   Overcast
3:58 PM 50.4 °F - 44.6 °F 81% 29.98 in 10.0 mi SSW 4.6 mph - N/A   Clear
4:58 PM 44.2 °F 41.0 °F 43.0 °F 95% 29.98 in 10.0 mi South 5.8 mph - N/A   Partly Cloudy
5:22 PM 42.8 °F 39.3 °F 42.8 °F 100% 29.96 in 10.0 mi South 5.8 mph - N/A Rain Light Rain
5:55 PM 46.4 °F 44.3 °F 44.6 °F 93% 29.96 in 10.0 mi South 4.6 mph - N/A   Partly Cloudy
5:58 PM 46.0 °F 43.9 °F 44.4 °F 94% 29.98 in 10.0 mi South 4.6 mph - 0.03 in   Partly Cloudy
6:23 PM 42.8 °F 41.1 °F 42.8 °F 100% 29.96 in 10.0 mi SSE 3.5 mph - N/A   Mostly Cloudy
6:29 PM 42.8 °F 40.1 °F 42.8 °F 100% 29.96 in 10.0 mi SSW 4.6 mph - N/A Rain Light Rain
6:49 PM 44.6 °F 41.4 °F 44.6 °F 100% 29.96 in 4.0 mi West 5.8 mph - N/A Rain Light Rain
6:58 PM 44.8 °F 43.3 °F 43.2 °F 94% 29.98 in 6.0 mi Variable 3.5 mph - 0.04 in Rain Light Rain
7:03 PM 44.6 °F - 41.0 °F 87% 29.95 in 8.0 mi WSW 2.3 mph - N/A Rain Light Rain
7:07 PM 44.6 °F - 42.8 °F 93% 29.96 in 10.0 mi SSE 2.3 mph - N/A   Overcast
7:12 PM 44.6 °F - 42.8 °F 93% 29.96 in 10.0 mi South 2.3 mph - N/A   Overcast
7:37 PM 42.8 °F - 42.8 °F 100% 29.95 in 10.0 mi SE 1.2 mph - N/A   Mostly Cloudy
7:58 PM 42.1 °F 40.2 °F 41.7 °F 99% 29.97 in 10.0 mi Variable 3.5 mph - 0.00 in   Mostly Cloudy
8:18 PM 41.0 °F 38.0 °F 41.0 °F 100% 29.95 in 10.0 mi South 4.6 mph - N/A   Overcast
8:43 PM 41.0 °F 39.0 °F 41.0 °F 100% 29.95 in 2.0 mi South 3.5 mph - N/A   Mostly Cloudy
8:48 PM 41.0 °F 38.0 °F 41.0 °F 100% 29.95 in 1.0 mi South 4.6 mph - N/A   Mostly Cloudy
8:53 PM 41.0 °F 38.0 °F 39.2 °F 93% 29.94 in 0.8 mi South 4.6 mph - N/A   Mostly Cloudy
8:58 PM 39.7 °F - 39.4 °F 99% 29.96 in 1.0 mi SSW 2.3 mph - N/A   Mostly Cloudy
9:03 PM 39.2 °F - 39.2 °F 100% 29.94 in 2.5 mi SSW 2.3 mph - N/A   Mostly Cloudy
9:08 PM 37.4 °F 33.8 °F 37.4 °F 100% 29.94 in 2.0 mi South 4.6 mph - N/A   Scattered Clouds
9:13 PM 35.6 °F 31.7 °F 35.6 °F 100% 29.94 in 0.8 mi SSE 4.6 mph - N/A   Mist
9:18 PM 37.4 °F - 35.6 °F 93% 29.94 in 0.5 mi ESE 2.3 mph - N/A Fog Fog
9:28 PM 39.2 °F - 37.4 °F 93% 29.94 in 0.5 mi Calm Calm - N/A Fog Fog
9:33 PM 39.2 °F - 37.4 °F 93% 29.94 in 0.5 mi Calm Calm - N/A Fog Fog
9:38 PM 39.2 °F - 37.4 °F 93% 29.94 in 0.5 mi Calm Calm - N/A Fog Fog
9:48 PM 37.4 °F - 37.4 °F 100% 29.95 in 0.2 mi Calm Calm - N/A Fog Fog
9:58 PM 36.5 °F - 36.3 °F 99% 29.96 in 0.2 mi SSE 2.3 mph - N/A Fog Fog
10:03 PM 35.6 °F 32.8 °F 35.6 °F 100% 29.94 in 0.5 mi SSE 3.5 mph - N/A Fog Fog
10:08 PM 33.8 °F 29.6 °F 33.8 °F 100% 29.94 in 0.8 mi South 4.6 mph - N/A   Clear
10:13 PM 32.0 °F 28.7 °F 32.0 °F 100% 29.94 in 0.8 mi SE 3.5 mph - N/A   Clear
10:23 PM 33.8 °F 30.8 °F 32.0 °F 93% 29.94 in 0.5 mi ESE 3.5 mph - N/A Fog Fog
10:33 PM 32.0 °F 28.7 °F 32.0 °F 100% 29.94 in 0.5 mi ESE 3.5 mph - N/A Fog Fog
10:38 PM 32.0 °F - 32.0 °F 100% 29.94 in 0.5 mi East 2.3 mph - N/A Fog Fog
10:58 PM 33.8 °F 30.8 °F 33.4 °F 99% 29.96 in 0.5 mi ESE 3.5 mph - N/A Fog Fog
11:03 PM 32.0 °F - 32.0 °F 100% 29.94 in 0.5 mi ESE 2.3 mph - N/A Fog Fog
11:13 PM 32.0 °F - 32.0 °F 100% 29.94 in 0.5 mi South 1.2 mph - N/A Fog Fog
11:23 PM 32.0 °F - 32.0 °F 100% 29.94 in 0.8 mi South 2.3 mph - N/A   Mostly Cloudy
11:28 PM 32.0 °F - 32.0 °F 100% 29.94 in 1.2 mi South 2.3 mph - N/A   Mostly Cloudy
11:43 PM 32.0 °F 28.7 °F 32.0 °F 100% 29.94 in 3.0 mi SSE 3.5 mph - N/A   Overcast
11:58 PM 33.1 °F - 32.9 °F 99% 29.95 in 8.0 mi SE 2.3 mph - N/A   Scattered Clouds